Theta_e
347 352 354 350 350 349 349 350 352 352 354 353 352 353 351 350 349 349 349 349 351 352 351 351 350 350 349 349 348 347 348 346 346 343 341 344 344 341 340 342 342 342 345 345
347 349 349 349 349 349 350 352 354 355 352 354 355 351 349 351 351 349 349 349 351 352 353 351 351 350 349 350 348 347 348 348 348 347 347 345 342 344 343 344 342 342 346 347
344 346 348 349 349 350 350 351 352 354 353 352 354 357 353 349 349 350 348 349 349 349 354 353 351 350 350 350 349 348 349 349 349 348 347 346 346 344 345 344 341 342 343 343
342 346 348 348 348 349 352 349 350 355 356 362 353 360 352 351 352 352 350 350 348 350 352 353 351 351 350 348 348 348 349 351 349 348 347 346 345 343 341 342 344 339 344 344
343 343 346 346 347 348 353 348 351 353 356 357 356 359 353 349 351 351 351 349 348 349 350 352 351 350 350 349 348 348 348 349 348 348 347 347 347 346 345 343 344 340 345 343
340 341 343 346 349 348 350 351 354 354 356 363 354 354 352 353 350 350 349 350 349 348 349 351 350 350 350 350 349 349 347 350 349 349 348 346 346 347 344 343 343 342 344 345
339 341 346 348 351 351 351 348 351 357 364 362 352 355 353 349 348 348 348 349 349 349 350 351 351 350 351 351 350 350 349 349 349 348 349 348 347 343 342 345 344 344 349 351
338 341 346 347 347 348 348 348 350 353 361 353 354 355 351 347 347 347 345 346 348 350 349 350 351 350 350 352 351 350 351 351 349 346 346 348 348 345 344 343 346 347 350 343
332 333 340 344 344 344 350 350 348 346 348 355 353 351 349 346 347 347 345 345 349 350 350 350 351 351 350 351 352 351 352 352 350 344 343 344 345 343 343 345 344 346 347 348
327 327 334 341 346 346 345 346 349 350 355 361 353 353 349 347 349 349 347 347 349 351 351 350 351 350 351 350 352 351 352 352 351 349 345 343 340 339 338 338 341 351 356 357
325 325 329 338 345 341 346 345 345 345 349 354 355 351 347 348 349 349 348 347 349 351 351 351 350 349 350 351 351 351 352 352 351 349 348 345 340 344 348 351 356 355 351 352
325 325 327 340 335 336 336 341 346 349 355 349 349 352 345 346 347 348 345 347 350 351 352 352 350 349 350 351 351 351 352 352 351 350 350 350 351 353 354 357 352 351 351 354
325 325 327 329 340 341 342 344 345 343 347 349 352 349 347 346 348 347 345 349 351 352 353 352 352 351 350 352 351 352 352 351 351 352 353 352 354 354 356 352 351 351 352 351
328 325 325 328 330 335 341 343 346 344 344 348 348 346 347 346 347 347 348 350 351 352 352 351 350 351 350 352 353 352 352 352 353 354 354 355 358 357 353 353 348 347 349 347
326 325 325 325 326 328 334 340 344 344 341 341 341 341 342 345 345 346 347 351 351 351 351 349 349 352 352 354 355 356 354 356 355 356 356 359 358 358 354 349 346 347 346 344
327 327 328 327 325 325 326 328 332 336 340 339 339 339 338 343 345 345 346 351 350 349 349 348 349 353 354 356 359 359 359 359 359 359 359 359 359 354 348 346 346 343 342 342
329 328 330 329 327 326 326 326 329 331 336 340 340 338 337 343 346 344 345 348 350 346 346 348 350 353 354 356 358 361 361 362 362 362 361 359 353 350 346 345 341 341 341 340
328 331 330 330 331 334 328 328 327 330 334 337 338 337 336 341 345 345 343 345 349 346 346 349 350 352 354 355 357 358 361 362 362 362 359 355 352 348 343 343 342 339 338 337
322 327 330 331 331 330 330 330 330 328 328 330 334 335 336 341 345 347 346 343 348 348 345 347 348 352 354 355 357 360 362 362 362 360 356 353 351 347 346 343 340 338 337 333
323 323 328 331 331 332 331 331 333 335 333 337 339 334 336 340 347 344 347 345 346 348 347 346 346 350 355 356 359 362 361 362 361 360 354 353 351 349 346 341 338 337 335 331
325 326 327 329 331 329 328 330 336 338 337 338 342 340 337 344 343 341 345 346 345 347 347 347 346 350 354 358 360 360 361 361 361 358 355 351 349 347 344 340 338 337 333 331
327 327 326 327 330 331 331 332 337 340 339 340 341 342 345 344 342 344 345 345 346 347 347 349 348 353 357 360 359 360 360 361 360 353 353 349 349 346 341 338 337 336 333 333
329 325 325 325 326 334 334 338 336 336 340 341 340 337 339 342 343 343 343 345 346 346 347 349 349 355 359 359 358 361 360 360 356 352 352 350 348 342 339 337 336 334 333 331
324 328 330 329 328 331 335 334 333 332 333 338 333 331 333 336 338 341 345 344 345 346 348 349 351 356 359 358 358 360 361 358 353 353 352 349 345 341 337 336 334 332 332 330
322 328 327 329 331 330 332 334 329 327 326 330 329 329 330 332 334 337 340 346 346 347 348 350 351 357 358 358 359 359 358 355 354 354 352 348 344 339 337 334 332 330 330 327
318 321 324 323 325 330 333 333 326 324 323 324 324 326 327 329 331 335 339 343 345 346 350 353 353 356 357 357 358 358 355 354 355 353 351 349 345 338 335 333 330 329 327 323
Wind_Speed
14 10 12 17 7 4 8 7 6 9 8 6 9 13 8 9 14 13 12 12 11 11 13 14 13 11 11 11 12 14 15 18 20 20 23 14 14 11 11 11 16 16 10 6
8 14 6 7 10 10 9 7 4 1 4 10 9 15 18 15 15 14 15 11 8 11 14 17 16 15 13 12 12 14 14 18 18 18 17 16 15 12 11 12 16 15 11 8
16 3 12 9 9 9 7 4 0 10 9 13 9 17 22 20 15 17 15 15 14 15 15 17 19 17 15 14 13 15 15 16 16 15 14 11 13 10 12 11 11 14 12 9
17 10 10 9 8 7 8 1 5 5 7 7 15 11 10 16 19 18 17 17 20 14 15 16 20 19 17 16 14 15 16 16 17 17 15 14 14 14 13 10 7 8 10 10
15 12 15 14 13 6 4 2 5 7 10 8 12 8 3 7 15 20 19 18 18 18 16 17 19 20 19 18 17 16 17 15 14 15 11 12 12 8 5 8 6 6 7 9
16 3 8 4 3 5 7 5 6 5 8 8 0 6 8 9 13 16 18 19 19 19 18 16 19 19 20 19 18 18 17 15 14 13 12 10 8 7 9 7 6 4 4 6
16 14 5 9 9 8 9 10 6 4 4 3 4 6 9 2 5 10 18 20 19 18 19 17 17 21 22 21 20 18 17 15 14 14 12 10 8 9 10 8 5 3 4 4
15 15 14 13 13 8 11 10 7 8 5 9 9 4 5 5 3 8 16 20 19 20 16 19 20 22 22 22 21 19 18 16 14 16 15 12 10 8 7 3 1 2 2 3
14 18 12 8 6 8 8 8 4 11 13 8 1 4 8 3 9 10 13 16 17 18 19 19 22 22 22 23 22 20 18 18 19 18 16 14 12 7 5 2 1 4 5 6
14 10 16 10 7 5 11 3 6 5 4 5 2 4 6 5 7 13 16 15 16 17 18 18 20 24 22 23 23 21 21 20 18 15 18 17 13 11 10 6 2 6 5 5
19 13 9 12 14 14 7 10 10 9 7 7 7 4 7 3 6 14 16 16 17 19 19 18 19 23 22 23 24 23 22 20 19 20 19 17 15 11 8 6 6 3 2 3
20 12 14 15 16 13 21 15 14 9 8 5 5 6 8 3 9 13 17 15 16 18 19 18 21 24 22 23 24 24 23 22 21 21 19 16 14 12 10 8 6 6 6 6
18 12 13 16 12 7 13 12 13 13 4 8 8 1 8 6 10 13 15 13 15 17 19 18 19 22 24 23 24 24 23 22 21 21 20 18 15 13 12 11 9 9 9 8
3 19 17 14 16 15 17 16 17 15 10 8 8 11 2 5 12 14 13 15 17 18 19 19 18 20 24 24 24 24 22 22 22 22 20 19 19 16 14 13 13 12 11 11
8 17 18 17 16 13 10 18 17 16 17 14 10 7 3 1 9 16 16 16 17 18 20 20 19 17 23 24 24 24 23 21 21 21 20 18 17 17 17 15 14 13 12 12
6 9 4 14 18 17 18 19 20 18 19 16 16 14 11 4 7 17 17 18 19 19 21 21 20 21 24 25 26 25 24 22 22 22 21 20 20 20 19 19 16 16 14 14
4 6 9 14 13 14 20 20 20 20 16 16 14 15 3 5 11 15 19 19 20 21 21 22 22 23 26 26 27 27 26 24 21 20 20 21 21 20 19 18 19 17 17 16
4 7 4 10 7 19 12 15 19 21 16 19 17 16 6 8 8 16 20 20 21 21 22 21 21 25 27 27 26 25 25 25 23 22 21 21 20 20 20 20 19 19 19 18
10 7 7 10 13 14 10 9 12 13 20 20 18 18 16 9 6 7 14 19 21 23 22 25 30 29 28 28 28 26 24 23 23 23 22 22 23 23 22 21 21 20 20 19
13 12 9 9 14 17 12 10 1 9 13 2 12 21 11 11 10 8 18 20 19 23 28 25 28 30 29 28 29 28 26 25 24 24 23 23 24 23 23 23 23 22 20 20
12 11 16 14 14 11 11 3 4 14 3 5 7 5 12 12 11 8 6 15 19 21 24 26 30 32 31 30 29 27 26 25 23 23 24 25 24 24 23 24 23 23 21 20
13 10 13 14 18 22 3 5 12 3 6 4 4 7 7 5 8 8 5 5 14 18 21 26 27 28 31 31 30 27 26 24 25 25 25 27 24 23 24 25 24 23 21 21
12 16 11 12 10 5 2 5 7 4 5 5 5 7 7 7 8 9 8 10 9 16 23 27 29 30 31 32 30 28 26 28 27 27 26 26 25 24 25 26 25 23 22 21
14 5 8 8 11 7 9 8 8 6 6 2 6 8 9 9 9 10 9 8 9 14 21 26 28 29 29 33 30 26 31 30 29 29 28 27 27 26 25 23 23 22 23 21
11 3 12 12 10 2 8 10 5 4 6 5 6 8 9 12 12 11 11 10 10 13 21 25 29 29 31 33 32 29 30 33 31 29 28 27 25 27 26 23 23 20 20 20
15 15 12 10 14 12 3 10 2 6 6 6 9 12 10 11 12 13 11 12 13 13 19 23 25 27 29 31 33 33 33 34 34 31 29 28 26 27 26 24 20 20 18 22
Wind_Direction
196 213 206 203 204 182 182 266 314 215 75 259 256 280 305 237 218 213 215 197 194 202 189 184 183 174 164 156 161 170 166 169 167 168 172 174 183 193 202 218 220 223 234 248
182 230 158 124 201 210 233 249 123 260 141 232 196 247 260 239 241 230 199 178 212 190 178 186 183 180 174 165 164 173 177 168 172 172 180 192 193 198 203 211 216 221 227 245
224 226 150 196 192 234 221 271 34 259 193 228 243 246 256 241 224 241 227 188 196 197 185 185 185 182 176 169 168 171 182 175 177 177 182 187 193 202 201 214 228 227 228 251
231 130 181 199 228 221 257 61 260 194 211 245 197 274 234 220 214 212 216 199 193 184 191 183 185 181 178 172 168 169 176 179 184 187 195 199 202 206 208 212 217 234 232 250
207 206 220 240 249 217 34 177 230 217 238 285 211 253 268 196 212 206 209 201 198 182 191 182 188 181 176 174 176 174 176 178 176 183 194 197 210 200 194 211 210 206 241 249
243 164 243 282 87 214 134 166 189 214 262 242 17 273 292 179 224 205 201 199 197 185 187 176 179 175 175 177 181 180 176 180 176 178 185 192 183 172 180 172 166 189 236 252
212 211 151 177 128 159 206 218 253 210 206 245 165 272 273 255 187 208 183 186 185 176 180 173 172 176 176 180 185 182 179 181 182 184 182 182 174 158 156 162 168 291 301 279
212 189 197 186 228 204 217 297 296 310 288 324 148 258 67 73 186 173 172 183 179 174 180 177 176 176 178 180 187 186 180 176 187 188 178 172 172 160 143 134 300 -0 303 328
209 229 157 190 186 239 151 230 307 284 243 256 137 255 225 189 197 177 182 184 176 181 184 184 175 176 177 178 186 186 182 182 186 192 193 185 167 150 160 152 99 356 317 298
227 243 188 162 184 204 260 51 222 213 283 296 247 239 23 4 169 175 182 186 176 176 180 176 175 178 178 179 184 184 185 190 179 178 188 175 169 148 131 147 262 303 284 275
233 210 187 178 216 223 178 221 234 287 282 308 291 65 40 328 198 173 174 171 164 170 173 171 174 178 176 176 180 184 185 186 180 181 179 178 184 205 216 235 262 256 270 189
219 224 225 204 235 240 249 232 230 241 183 237 313 296 44 10 174 172 170 166 165 168 167 167 172 175 171 177 178 181 188 182 184 185 181 191 193 205 205 205 209 178 165 155
207 222 237 212 169 201 226 219 249 247 298 275 289 27 53 109 140 162 155 157 160 167 166 166 170 172 174 177 176 179 186 184 184 184 182 186 191 185 188 192 170 158 154 151
294 230 226 234 226 201 207 215 213 234 239 241 229 305 199 116 160 158 155 159 165 169 169 170 172 173 177 178 176 176 185 182 180 179 178 178 177 176 172 164 161 156 155 144
227 234 241 243 257 244 222 220 208 227 250 268 274 295 297 324 177 171 163 162 165 176 177 172 175 172 178 176 173 171 177 177 178 176 175 172 169 166 161 156 152 152 150 138
201 242 247 245 243 244 248 236 245 225 240 259 262 277 280 296 205 176 169 172 174 181 184 177 176 174 179 178 173 170 170 174 175 174 170 168 167 160 158 152 153 146 139 139
233 231 217 237 218 238 234 237 244 240 227 240 238 248 289 218 204 216 181 181 186 186 187 181 183 179 180 180 177 172 170 171 172 169 165 165 161 157 152 149 142 142 146 145
234 220 230 252 204 236 245 235 221 241 232 232 242 260 251 246 237 215 210 190 191 193 190 188 184 180 179 179 180 174 171 171 170 169 167 165 159 153 150 147 150 150 147 147
226 257 245 238 235 253 231 223 228 237 237 237 247 246 249 227 205 206 233 197 194 196 197 189 186 181 176 176 174 172 171 171 170 171 168 164 162 157 156 154 155 153 151 152
211 229 255 227 250 249 249 224 133 265 246 356 296 241 234 198 219 223 182 198 206 200 203 185 185 177 174 175 172 170 173 173 177 173 170 168 164 162 160 160 159 157 159 156
195 213 223 226 239 245 246 90 233 218 164 35 332 318 201 208 236 358 347 190 197 199 195 184 186 177 175 171 175 175 175 180 175 170 165 164 164 162 161 160 160 160 161 158
201 205 213 233 238 234 61 194 239 56 91 40 20 23 353 329 319 307 250 205 197 191 188 176 183 172 171 172 177 177 179 173 167 165 163 162 163 162 163 161 163 164 163 163
241 229 248 217 226 121 83 99 101 68 99 71 24 10 347 333 328 339 302 264 203 198 189 183 180 175 172 176 181 179 173 167 166 162 164 163 164 165 167 166 165 167 169 171
221 265 242 251 230 190 140 120 104 75 50 43 27 357 343 340 335 338 316 291 221 198 188 188 182 181 178 179 181 185 170 168 167 166 167 167 166 167 170 172 173 174 179 180
242 160 226 231 268 130 188 177 113 45 13 13 351 351 346 341 342 335 322 308 272 208 193 192 190 187 186 178 176 175 174 169 168 169 171 171 170 172 173 179 180 185 189 188
242 240 239 241 233 239 290 155 274 322 336 334 333 335 338 330 327 331 321 311 286 226 196 193 194 189 187 183 175 172 177 176 170 171 174 175 173 177 177 176 179 190 190 193